Location: *
(10.5081°N, 66.9194°W)
Time: 04:39:43
(UTC+00:00)

In-Cosmos 22 - Pass Details

Date: 30 March 2020
Orbit: 784 x 877 km, 81.2° (Epoch: 23 May)

Event Time Altitude Azimuth Distance (km) Brightness Sun altitude
Rises 23:06:01 0° 358° (N) 3,374 7.4 -7.6°
Reaches altitude 10° 23:08:27 10° 0° (N) 2,426 6.7 -8.2°
Maximum altitude 23:13:55 73° 84° (E) 850 4.1 -9.5°
Drops below altitude 10° 23:19:14 10° 169° (S) 2,368 6.4 -10.8°
Sets 23:21:36 0° 171° (S) 3,288 7.1 -11.4°
